When you browse on this site, cookies collect data to enhance your experience and personalize the content and advertising you see.
Visit our Privacy Policy to learn more. By continuing to use the site, you agree to this use of cookies and data.
  • In Austria
  • List of Countries
  • For 7 days
  • Water Temperature
  • Weather Map
  • News
  • Weather Widgets
  • user-avatar
    Login

    Hourly Weather Zatyshne

    Today, 27 January, Monday

    Time Temperature Precipitation Wind Pressure Humidity
    00:00 +4°C° 0 mm 1 mps 760 mmHg 82%
    01:00 +4°C° 0 mm 1 mps 760 mmHg 83%
    02:00 +4°C° 0 mm 1 mps 760 mmHg 84%
    03:00 +4°C° 0 mm 1 mps 760 mmHg 85%
    04:00 +2°C° 0 mm 2 mps 760 mmHg 87%
    05:00 +2°C° 0 mm 2 mps 760 mmHg 88%
    06:00 +3°C° 0 mm 2 mps 760 mmHg 86%
    07:00 +3°C° 0 mm 2 mps 760 mmHg 85%
    08:00 +4°C° 0 mm 2 mps 760 mmHg 84%
    09:00 +5°C° 0 mm 2 mps 760 mmHg 78%
    10:00 +7°C° 0 mm 3 mps 760 mmHg 71%
    11:00 +9°C° 0 mm 3 mps 760 mmHg 64%
    12:00 +9°C° 0 mm 3 mps 759 mmHg 66%
    13:00 +8°C° 0 mm 4 mps 759 mmHg 68%
    14:00 +8°C° 0 mm 4 mps 758 mmHg 70%
    15:00 +8°C° 0 mm 4 mps 758 mmHg 76%
    16:00 +7°C° 0 mm 4 mps 758 mmHg 82%
    17:00 +6°C° 0 mm 4 mps 758 mmHg 87%
    18:00 +6°C° 0 mm 4 mps 757 mmHg 87%
    19:00 +6°C° 0 mm 5 mps 757 mmHg 86%
    20:00 +6°C° 0 mm 5 mps 757 mmHg 86%
    21:00 +6°C° 0 mm 5 mps 757 mmHg 86%
    22:00 +6°C° 0 mm 5 mps 757 mmHg 85%
    23:00 +6°C° 0 mm 4 mps 757 mmHg 85%

    Tomorrow, 28 January, Tuesday

    Time Temperature Precipitation Wind Pressure Humidity
    00:00 +6°C° 0 mm 4 mps 756 mmHg 87%
    01:00 +5°C° 0 mm 4 mps 756 mmHg 89%
    02:00 +5°C° 0 mm 4 mps 756 mmHg 91%
    03:00 +5°C° 0 mm 4 mps 755 mmHg 92%
    04:00 +5°C° 0 mm 4 mps 755 mmHg 93%
    05:00 +4°C° 0 mm 4 mps 754 mmHg 93%
    06:00 +5°C° 0 mm 4 mps 754 mmHg 93%
    07:00 +5°C° 0 mm 4 mps 755 mmHg 93%
    08:00 +5°C° 0 mm 4 mps 755 mmHg 92%
    09:00 +6°C° 0 mm 4 mps 754 mmHg 84%
    10:00 +7°C° 0 mm 4 mps 754 mmHg 76%
    11:00 +8°C° 0 mm 5 mps 754 mmHg 67%
    12:00 +8°C° 0 mm 5 mps 753 mmHg 67%
    13:00 +8°C° 0 mm 5 mps 753 mmHg 67%
    14:00 +8°C° 0 mm 5 mps 752 mmHg 67%
    15:00 +8°C° 0 mm 5 mps 752 mmHg 70%
    16:00 +7°C° 0 mm 5 mps 752 mmHg 74%
    17:00 +6°C° 0 mm 5 mps 751 mmHg 78%
    18:00 +6°C° 0 mm 5 mps 751 mmHg 81%
    19:00 +6°C° 0 mm 4 mps 751 mmHg 85%
    20:00 +6°C° 0 mm 4 mps 751 mmHg 88%
    21:00 +6°C° 0.1 mm 4 mps 751 mmHg 88%
    22:00 +6°C° 0.1 mm 4 mps 751 mmHg 88%
    23:00 +6°C° 0.1 mm 4 mps 750 mmHg 88%

    Day after tomorrow, 29 January, Wednesday

    Time Temperature Precipitation Wind Pressure Humidity
    00:00 +6°C° 0.1 mm 4 mps 750 mmHg 90%
    01:00 +6°C° 0.1 mm 5 mps 750 mmHg 91%
    02:00 +6°C° 0.1 mm 5 mps 750 mmHg 92%
    03:00 +5°C° 0 mm 6 mps 749 mmHg 91%
    04:00 +6°C° 0 mm 7 mps 749 mmHg 90%
    05:00 +6°C° 0 mm 8 mps 749 mmHg 89%
    06:00 +6°C° 0.2 mm 8 mps 749 mmHg 89%
    07:00 +6°C° 0.2 mm 8 mps 749 mmHg 88%
    08:00 +6°C° 0.2 mm 8 mps 749 mmHg 88%
    09:00 +7°C° 0.1 mm 9 mps 749 mmHg 84%
    10:00 +7°C° 0.1 mm 9 mps 749 mmHg 80%
    11:00 +8°C° 0.1 mm 9 mps 749 mmHg 77%
    12:00 +8°C° 0 mm 9 mps 748 mmHg 78%
    13:00 +8°C° 0 mm 9 mps 748 mmHg 79%
    14:00 +7°C° 0 mm 10 mps 748 mmHg 80%
    15:00 +7°C° 0.1 mm 10 mps 748 mmHg 80%
    16:00 +7°C° 0.1 mm 10 mps 748 mmHg 80%
    17:00 +7°C° 0.1 mm 10 mps 748 mmHg 80%
    18:00 +7°C° 0.1 mm 10 mps 747 mmHg 80%
    19:00 +7°C° 0.1 mm 10 mps 747 mmHg 81%
    20:00 +7°C° 0.1 mm 11 mps 747 mmHg 82%
    21:00 +6°C° 1.4 mm 11 mps 747 mmHg 81%
    22:00 +4°C° 1.4 mm 11 mps 747 mmHg 80%
    23:00 +3°C° 1.4 mm 11 mps 747 mmHg 79%

    30 January, Thursday

    Time Temperature Precipitation Wind Pressure Humidity
    00:00 +3°C° 0 mm 10 mps 748 mmHg 76%
    01:00 +2°C° 0 mm 9 mps 749 mmHg 73%
    02:00 +1°C° 0 mm 9 mps 750 mmHg 70%
    03:00 +1°C° 0 mm 8 mps 750 mmHg 69%
    04:00 +2°C° 0 mm 7 mps 750 mmHg 67%
    05:00 +2°C° 0 mm 6 mps 751 mmHg 65%
    06:00 +2°C° 0 mm 6 mps 751 mmHg 64%
    07:00 +2°C° 0 mm 5 mps 751 mmHg 62%
    08:00 +3°C° 0 mm 5 mps 751 mmHg 60%
    09:00 +5°C° 0 mm 5 mps 751 mmHg 59%
    10:00 +6°C° 0 mm 5 mps 751 mmHg 57%
    11:00 +7°C° 0 mm 5 mps 751 mmHg 55%
    12:00 +7°C° 0 mm 5 mps 751 mmHg 55%
    13:00 +7°C° 0 mm 6 mps 750 mmHg 56%
    14:00 +6°C° 0 mm 7 mps 750 mmHg 57%
    15:00 +7°C° 0 mm 6 mps 750 mmHg 63%
    16:00 +5°C° 0 mm 6 mps 750 mmHg 70%
    17:00 +4°C° 0 mm 6 mps 750 mmHg 77%
    18:00 +4°C° 0 mm 6 mps 750 mmHg 76%
    19:00 +3°C° 0 mm 6 mps 750 mmHg 76%
    20:00 +3°C° 0 mm 5 mps 750 mmHg 76%
    21:00 +2°C° 0 mm 6 mps 750 mmHg 75%
    22:00 +2°C° 0 mm 6 mps 750 mmHg 73%
    23:00 +1°C° 0 mm 6 mps 750 mmHg 72%

    31 January, Friday

    Time Temperature Precipitation Wind Pressure Humidity
    00:00 +1°C° 0 mm 6 mps 750 mmHg 73%
    01:00 +1°C° 0 mm 6 mps 750 mmHg 74%
    02:00 0°C° 0 mm 5 mps 750 mmHg 75%
    03:00 -1°C° 0 mm 6 mps 750 mmHg 79%
    04:00 -1°C° 0 mm 6 mps 750 mmHg 83%
    05:00 -2°C° 0 mm 6 mps 750 mmHg 87%
    06:00 -1°C° 0 mm 6 mps 750 mmHg 86%
    07:00 -1°C° 0 mm 6 mps 751 mmHg 85%
    08:00 -1°C° 0 mm 6 mps 751 mmHg 83%
    09:00 +1°C° 0 mm 6 mps 751 mmHg 82%
    10:00 +1°C° 0 mm 6 mps 751 mmHg 80%
    11:00 +2°C° 0 mm 7 mps 751 mmHg 79%
    12:00 +2°C° 0 mm 7 mps 751 mmHg 80%
    13:00 +2°C° 0 mm 7 mps 751 mmHg 81%
    14:00 +2°C° 0 mm 7 mps 751 mmHg 82%
    15:00 +1°C° 0 mm 6 mps 751 mmHg 82%
    16:00 +1°C° 0 mm 5 mps 751 mmHg 82%
    17:00 0°C° 0 mm 4 mps 752 mmHg 81%
    18:00 +1°C° 0 mm 5 mps 752 mmHg 78%
    19:00 +1°C° 0 mm 5 mps 752 mmHg 74%
    20:00 +1°C° 0 mm 5 mps 752 mmHg 71%
    21:00 0°C° 0 mm 5 mps 752 mmHg 75%
    22:00 -1°C° 0 mm 5 mps 752 mmHg 79%
    23:00 -1°C° 0 mm 5 mps 752 mmHg 83%

    1 February, Saturday

    Time Temperature Precipitation Wind Pressure Humidity
    00:00 -2°C° 0 mm 4 mps 752 mmHg 83%
    01:00 -1°C° 0 mm 3 mps 752 mmHg 83%
    02:00 -1°C° 0 mm 2 mps 752 mmHg 83%
    03:00 -1°C° 0 mm 3 mps 751 mmHg 81%
    04:00 0°C° 0 mm 3 mps 751 mmHg 79%
    05:00 -1°C° 0 mm 4 mps 751 mmHg 77%
    06:00 0°C° 0 mm 4 mps 751 mmHg 78%
    07:00 0°C° 0 mm 4 mps 751 mmHg 79%
    08:00 +1°C° 0 mm 4 mps 751 mmHg 80%
    09:00 +3°C° 0 mm 4 mps 752 mmHg 76%
    10:00 +4°C° 0 mm 4 mps 752 mmHg 71%
    11:00 +5°C° 0 mm 4 mps 752 mmHg 67%
    12:00 +5°C° 0 mm 3 mps 752 mmHg 68%
    13:00 +5°C° 0 mm 3 mps 752 mmHg 68%
    14:00 +7°C° 0 mm 2 mps 752 mmHg 69%
    15:00 +6°C° 0 mm 2 mps 753 mmHg 73%
    16:00 +6°C° 0 mm 2 mps 753 mmHg 76%
    17:00 +5°C° 0 mm 2 mps 754 mmHg 79%
    18:00 +6°C° 0 mm 1 mps 754 mmHg 82%
    19:00 +5°C° 0 mm 1 mps 754 mmHg 85%
    20:00 +5°C° 0 mm 1 mps 755 mmHg 88%
    21:00 +4°C° 0 mm 1 mps 755 mmHg 89%
    22:00 +4°C° 0 mm 1 mps 755 mmHg 90%
    23:00 +4°C° 0 mm 1 mps 756 mmHg 91%
    Show more